This is the latest recevied weather packets stored in our database for station/object K3JSE-2. If no packets are shown the sender has not sent any weather packets the latest 10 day(s).
| Time | Temp. | Humidity | Pressure | Rain* | Wind** | Luminosity | Snow |
|---|---|---|---|---|---|---|---|
| 1777481718 | 15° C | 56% | 1013.8 hPa | 0 mm | - | - | - |
| 1777481418 | 15° C | 53% | 1014 hPa | 0 mm | - | - | - |
| 1777481173 | 15° C | 53% | 1014 hPa | 0 mm | - | - | - |
| 1777480903 | 15° C | 54% | 1014.1 hPa | 0 mm | - | - | - |
| 1777480638 | 15° C | 54% | 1014.1 hPa | 0 mm | - | - | - |
| 1777480358 | 15° C | 54% | 1014.1 hPa | 0 mm | - | - | - |
| 1777480056 | 15° C | 51% | 1014 hPa | 0 mm | - | - | - |
| 1777479798 | 15° C | 51% | 1014.1 hPa | 0 mm | - | - | - |
| 1777479558 | 15° C | 51% | 1014.2 hPa | 0 mm | - | - | - |
| 1777479305 | 15° C | 50% | 1014.2 hPa | 0 mm | - | - | - |
| 1777479012 | 15° C | 50% | 1014.2 hPa | 0 mm | - | - | - |
| 1777478768 | 15° C | 51% | 1014.2 hPa | 0 mm | - | - | - |
| 1777478488 | 15° C | 52% | 1014.2 hPa | 0 mm | - | - | - |
| 1777478233 | 15° C | 50% | 1014.2 hPa | 0 mm | - | - | - |
| 1777477961 | 15° C | 53% | 1014.2 hPa | 0 mm | - | - | - |
| 1777477703 | 15° C | 52% | 1014.2 hPa | 0 mm | - | - | - |
| 1777477441 | 14.44° C | 52% | 1014.3 hPa | 0 mm | - | - | - |
| 1777477153 | 14.44° C | 52% | 1014.5 hPa | 0 mm | - | - | - |
| 1777476893 | 13.89° C | 53% | 1014.5 hPa | 0 mm | - | - | - |
| 1777476598 | 13.89° C | 57% | 1014.7 hPa | 0 mm | - | - | - |
| 1777476335 | 13.89° C | 54% | 1014.9 hPa | 0 mm | - | - | - |
| 1777476043 | 13.89° C | 53% | 1014.9 hPa | 0 mm | - | - | - |
| 1777475783 | 13.89° C | 53% | 1014.8 hPa | 0 mm | - | - | - |
| 1777475538 | 13.89° C | 56% | 1014.8 hPa | 0 mm | - | - | - |
| 1777475293 | 13.89° C | 55% | 1014.9 hPa | 0 mm | - | - | - |
* Rain latest hour (hover to see other rain measurements)
** Current wind speed in m/s (hover to see current wind gust speed)